STARLINK AJ

Last updated on Jan. 16, 2020, 12:02 a.m. UTC

1 44946U 20001AJ  20015.58334491  .00151231  00000-0  70788-3 0  9991
2 44946  53.0006 354.7746 0001000 106.4548 311.5749 15.82300595  1355

Satellite is not in orbit.